Terug naar catalogus

NOAA 16 DEB

ActiefPO
NORAD 41230·DEBRIS·🇺🇸 United States

Gelanceerd Sep 21, 2000 vanaf Vandenberg Space Force Base

Loading…

Volgende Passages (komende 24 uur)

TLE

VersSource: Space-Track

Epoch: Sep 14, 2026, 11:20 UTC

1 41230U 00055EK  26257.47273143  .00003807  00000-0  93133-3 0  9993
2 41230  98.9894 135.3624 0025309 195.6693 164.3720 14.52980563560907

Volg NOAA 16 DEB in realtime met AllMySat

Download on the App Store